• In Deutschland
  • Länderverzeichnis
  • Für 7 Tage
  • Wassertemperatur
  • Satellitenkarten
  • Wetterkarte
  • Widgets
  • user-avatar
    Anmelden

    Stündliche Wetter Böblingen

    Heute, 23 September, Sonntag

    Zeit Temperatur Niederschläge Wind Luftdruck Luftfeuchtigkeit
    00:00 +12°C° 0.2 mm 1 m/S 723 mmHg 77%
    01:00 +11°C° 0 mm 3 m/S 723 mmHg 82%
    02:00 +12°C° 0.4 mm 3 m/S 722 mmHg 83%
    03:00 +12°C° 0.4 mm 3 m/S 722 mmHg 84%
    04:00 +12°C° 0.4 mm 3 m/S 721 mmHg 84%
    05:00 +13°C° 0.4 mm 4 m/S 721 mmHg 83%
    06:00 +14°C° 0.4 mm 4 m/S 720 mmHg 83%
    07:00 +14°C° 0 mm 4 m/S 720 mmHg 81%
    08:00 +14°C° 0.2 mm 5 m/S 720 mmHg 82%
    09:00 +15°C° 0.2 mm 5 m/S 720 mmHg 82%
    10:00 +16°C° 0.2 mm 6 m/S 720 mmHg 83%
    11:00 +17°C° 0.2 mm 7 m/S 719 mmHg 79%
    12:00 +20°C° 0.2 mm 8 m/S 719 mmHg 75%
    13:00 +22°C° 0 mm 6 m/S 718 mmHg 73%
    14:00 +23°C° 0.1 mm 7 m/S 717 mmHg 72%
    15:00 +23°C° 0.1 mm 9 m/S 716 mmHg 70%
    16:00 +23°C° 0.1 mm 10 m/S 716 mmHg 68%
    17:00 +21°C° 2 mm 10 m/S 716 mmHg 74%
    18:00 +18°C° 2 mm 9 m/S 716 mmHg 81%
    19:00 +17°C° 2 mm 9 m/S 717 mmHg 87%
    20:00 +13°C° 2.3 mm 8 m/S 718 mmHg 88%
    21:00 +11°C° 2.3 mm 7 m/S 720 mmHg 89%
    22:00 +9°C° 2.3 mm 5 m/S 721 mmHg 90%
    23:00 +9°C° 0.1 mm 5 m/S 723 mmHg 90%

    Morgen, 24 September, Montag

    Zeit Temperatur Niederschläge Wind Luftdruck Luftfeuchtigkeit
    00:00 +8°C° 0.1 mm 4 m/S 725 mmHg 90%
    01:00 +8°C° 0.1 mm 3 m/S 726 mmHg 90%
    02:00 +8°C° 0.1 mm 3 m/S 727 mmHg 90%
    03:00 +8°C° 0.1 mm 2 m/S 728 mmHg 91%
    04:00 +7°C° 0.1 mm 2 m/S 729 mmHg 91%
    05:00 +7°C° 0 mm 2 m/S 730 mmHg 92%
    06:00 +7°C° 0 mm 2 m/S 730 mmHg 92%
    07:00 +6°C° 0 mm 2 m/S 731 mmHg 93%
    08:00 +7°C° 0 mm 2 m/S 731 mmHg 85%
    09:00 +9°C° 0 mm 2 m/S 732 mmHg 78%
    10:00 +10°C° 0 mm 3 m/S 733 mmHg 70%
    11:00 +11°C° 0 mm 3 m/S 733 mmHg 62%
    12:00 +12°C° 0 mm 3 m/S 733 mmHg 54%
    13:00 +13°C° 0 mm 3 m/S 733 mmHg 46%
    14:00 +13°C° 0 mm 3 m/S 732 mmHg 46%
    15:00 +13°C° 0 mm 3 m/S 732 mmHg 45%
    16:00 +13°C° 0 mm 3 m/S 732 mmHg 45%
    17:00 +12°C° 0 mm 2 m/S 732 mmHg 51%
    18:00 +9°C° 0 mm 2 m/S 732 mmHg 56%
    19:00 +9°C° 0 mm 1 m/S 732 mmHg 62%
    20:00 +8°C° 0 mm 1 m/S 733 mmHg 63%
    21:00 +8°C° 0 mm 1 m/S 733 mmHg 64%
    22:00 +8°C° 0 mm 1 m/S 734 mmHg 66%
    23:00 +7°C° 0 mm 1 m/S 734 mmHg 69%

    übermorgen, 25 September, Dienstag

    Zeit Temperatur Niederschläge Wind Luftdruck Luftfeuchtigkeit
    00:00 +7°C° 0 mm 1 m/S 734 mmHg 72%
    01:00 +6°C° 0 mm 1 m/S 734 mmHg 76%
    02:00 +6°C° 0 mm 1 m/S 734 mmHg 78%
    03:00 +6°C° 0 mm 1 m/S 734 mmHg 81%
    04:00 +5°C° 0 mm 1 m/S 734 mmHg 84%
    05:00 +4°C° 0 mm 2 m/S 734 mmHg 84%
    06:00 +4°C° 0 mm 2 m/S 734 mmHg 85%
    07:00 +4°C° 0 mm 2 m/S 734 mmHg 85%
    08:00 +6°C° 0 mm 2 m/S 734 mmHg 75%
    09:00 +8°C° 0 mm 3 m/S 734 mmHg 66%
    10:00 +10°C° 0 mm 4 m/S 734 mmHg 56%
    11:00 +11°C° 0 mm 4 m/S 734 mmHg 52%
    12:00 +12°C° 0 mm 4 m/S 734 mmHg 48%
    13:00 +13°C° 0 mm 4 m/S 734 mmHg 44%
    14:00 +13°C° 0 mm 4 m/S 733 mmHg 45%
    15:00 +13°C° 0 mm 4 m/S 733 mmHg 46%
    16:00 +13°C° 0 mm 4 m/S 733 mmHg 47%
    17:00 +11°C° 0 mm 4 m/S 733 mmHg 52%
    18:00 +9°C° 0 mm 3 m/S 733 mmHg 58%
    19:00 +8°C° 0 mm 3 m/S 733 mmHg 64%
    20:00 +7°C° 0 mm 3 m/S 733 mmHg 65%
    21:00 +5°C° 0 mm 3 m/S 733 mmHg 66%
    22:00 +5°C° 0 mm 3 m/S 733 mmHg 67%
    23:00 +5°C° 0 mm 2 m/S 733 mmHg 68%

    26 September, Mittwoch

    Zeit Temperatur Niederschläge Wind Luftdruck Luftfeuchtigkeit
    00:00 +5°C° 0 mm 2 m/S 733 mmHg 68%
    01:00 +4°C° 0 mm 2 m/S 732 mmHg 68%
    02:00 +4°C° 0 mm 2 m/S 732 mmHg 69%
    03:00 +3°C° 0 mm 2 m/S 732 mmHg 71%
    04:00 +4°C° 0 mm 1 m/S 732 mmHg 72%
    05:00 +4°C° 0 mm 1 m/S 732 mmHg 72%
    06:00 +4°C° 0 mm 1 m/S 732 mmHg 72%
    07:00 +4°C° 0 mm 1 m/S 732 mmHg 73%
    08:00 +7°C° 0 mm 1 m/S 732 mmHg 65%
    09:00 +10°C° 0 mm 1 m/S 732 mmHg 57%
    10:00 +13°C° 0 mm 1 m/S 732 mmHg 49%
    11:00 +15°C° 0 mm 1 m/S 732 mmHg 45%
    12:00 +18°C° 0 mm 1 m/S 732 mmHg 42%
    13:00 +18°C° 0 mm 0 m/S 732 mmHg 38%
    14:00 +20°C° 0 mm 1 m/S 732 mmHg 38%
    15:00 +20°C° 0 mm 1 m/S 732 mmHg 39%
    16:00 +20°C° 0 mm 1 m/S 731 mmHg 40%
    17:00 +15°C° 0 mm 0 m/S 731 mmHg 46%
    18:00 +13°C° 0 mm 0 m/S 731 mmHg 52%
    19:00 +10°C° 0 mm 0 m/S 731 mmHg 59%
    20:00 +10°C° 0 mm 0 m/S 731 mmHg 60%
    21:00 +9°C° 0 mm 0 m/S 731 mmHg 62%
    22:00 +10°C° 0 mm 1 m/S 731 mmHg 64%
    23:00 +10°C° 0 mm 1 m/S 731 mmHg 65%

    27 September, Donnerstag

    Zeit Temperatur Niederschläge Wind Luftdruck Luftfeuchtigkeit
    00:00 +9°C° 0 mm 1 m/S 731 mmHg 66%
    01:00 +9°C° 0 mm 1 m/S 731 mmHg 67%
    02:00 +9°C° 0 mm 1 m/S 730 mmHg 68%
    03:00 +9°C° 0 mm 1 m/S 730 mmHg 68%
    04:00 +9°C° 0 mm 1 m/S 730 mmHg 69%
    05:00 +9°C° 0 mm 1 m/S 730 mmHg 69%
    06:00 +9°C° 0 mm 1 m/S 730 mmHg 69%
    07:00 +9°C° 0 mm 1 m/S 730 mmHg 69%
    08:00 +12°C° 0 mm 1 m/S 730 mmHg 61%
    09:00 +15°C° 0 mm 1 m/S 730 mmHg 54%
    10:00 +17°C° 0 mm 0 m/S 730 mmHg 46%
    11:00 +20°C° 0 mm 1 m/S 730 mmHg 43%
    12:00 +22°C° 0 mm 1 m/S 729 mmHg 40%
    13:00 +23°C° 0 mm 1 m/S 729 mmHg 37%
    14:00 +23°C° 0 mm 1 m/S 729 mmHg 39%
    15:00 +23°C° 0 mm 1 m/S 728 mmHg 41%
    16:00 +23°C° 0 mm 1 m/S 727 mmHg 43%
    17:00 +20°C° 0 mm 1 m/S 727 mmHg 50%
    18:00 +16°C° 0 mm 0 m/S 727 mmHg 57%
    19:00 +13°C° 0 mm 0 m/S 726 mmHg 65%
    20:00 +13°C° 0 mm 0 m/S 726 mmHg 66%
    21:00 +13°C° 0 mm 1 m/S 726 mmHg 67%
    22:00 +13°C° 0 mm 1 m/S 726 mmHg 68%
    23:00 +12°C° 0 mm 1 m/S 726 mmHg 70%

    28 September, Freitag

    Zeit Temperatur Niederschläge Wind Luftdruck Luftfeuchtigkeit
    00:00 +12°C° 0 mm 1 m/S 726 mmHg 72%
    01:00 +12°C° 0 mm 1 m/S 726 mmHg 74%
    02:00 +11°C° 0 mm 1 m/S 725 mmHg 76%
    03:00 +11°C° 0 mm 1 m/S 725 mmHg 78%
    04:00 +11°C° 0 mm 1 m/S 725 mmHg 81%
    05:00 +10°C° 0 mm 0 m/S 725 mmHg 81%
    06:00 +10°C° 0 mm 0 m/S 725 mmHg 82%
    07:00 +9°C° 0 mm 0 m/S 725 mmHg 83%
    08:00 +12°C° 0 mm 0 m/S 725 mmHg 74%
    09:00 +14°C° 0 mm 0 m/S 725 mmHg 66%
    10:00 +19°C° 0 mm 1 m/S 725 mmHg 58%
    11:00 +20°C° 0 mm 1 m/S 725 mmHg 54%
    12:00 +21°C° 0 mm 1 m/S 725 mmHg 50%
    13:00 +22°C° 0 mm 1 m/S 725 mmHg 46%
    14:00 +20°C° 0 mm 2 m/S 724 mmHg 47%
    15:00 +20°C° 0 mm 2 m/S 724 mmHg 48%
    16:00 +20°C° 0 mm 2 m/S 724 mmHg 49%
    17:00 +18°C° 0 mm 2 m/S 724 mmHg 56%
    18:00 +16°C° 0 mm 2 m/S 724 mmHg 64%
    19:00 +14°C° 0 mm 2 m/S 724 mmHg 72%
    20:00 +12°C° 0 mm 3 m/S 724 mmHg 76%
    21:00 +11°C° 0 mm 3 m/S 725 mmHg 80%
    22:00 +11°C° 0 mm 3 m/S 725 mmHg 83%
    23:00 +10°C° 0 mm 3 m/S 725 mmHg 85%
    Mehr zeigen